This is the latest recevied weather packets stored in our database for station/object G7GQA-4. If no packets are shown the sender has not sent any weather packets the latest 10 day(s).
| Time | Temp. | Humidity | Pressure | Rain* | Wind** | Luminosity | Snow |
|---|---|---|---|---|---|---|---|
| 1778103927 | 7.22° C | 84% | - | 0 mm | - | 0 W/m² | - |
| 1778103327 | 7.78° C | 83% | - | 0 mm | - | 0 W/m² | - |
| 1778102727 | 7.78° C | 82% | - | 0 mm | - | 0 W/m² | - |
| 1778102127 | 7.78° C | 81% | - | 0 mm | - | 0 W/m² | - |
| 1778101528 | 7.78° C | 80% | - | 0 mm | - | 0 W/m² | - |
| 1778100927 | 7.78° C | 79% | - | 0 mm | - | 0 W/m² | - |
| 1778100327 | 8.33° C | 78% | - | 0 mm | - | 0 W/m² | - |
| 1778099727 | 8.33° C | 77% | - | 0 mm | - | 0 W/m² | - |
| 1778099127 | 8.89° C | 76% | - | 0 mm | - | 0 W/m² | - |
| 1778098527 | 8.89° C | 75% | - | 0 mm | - | 0 W/m² | - |
| 1778097927 | 8.89° C | 74% | - | 0 mm | - | 0 W/m² | - |
| 1778097327 | 9.44° C | 74% | - | 0 mm | - | 1 W/m² | - |
| 1778096727 | 9.44° C | 73% | - | 0 mm | - | 3 W/m² | - |
| 1778096127 | 9.44° C | 71% | - | 0 mm | - | 7 W/m² | - |
| 1778095527 | 10° C | 68% | - | 0 mm | - | 11 W/m² | - |
| 1778094927 | 10.56° C | 64% | - | 0 mm | - | 18 W/m² | - |
| 1778094327 | 11.11° C | 61% | - | 0 mm | - | 24 W/m² | - |
| 1778093727 | 11.11° C | 60% | - | 0 mm | - | 30 W/m² | - |
| 1778093127 | 11.67° C | 59% | - | 0 mm | - | 41 W/m² | - |
| 1778092527 | 11.67° C | 57% | - | 0 mm | - | 47 W/m² | - |
| 1778091932 | 12.22° C | 52% | - | 0 mm | - | 57 W/m² | - |
| 1778091340 | 12.22° C | 50% | - | 0 mm | - | 70 W/m² | - |
| 1778090727 | 12.78° C | 50% | - | 0 mm | - | 77 W/m² | - |
| 1778090127 | 12.78° C | 48% | - | 0 mm | - | 94 W/m² | - |
| 1778089527 | 12.78° C | 49% | - | 0 mm | - | 121 W/m² | - |
* Rain latest hour (hover to see other rain measurements)
** Current wind speed in m/s (hover to see current wind gust speed)